Weather History for KMLI - January, 2011

Change the Weather History Date:

Saturday, January 1, 2011

  Actual Average Record
Temperature  
Mean Temperature 23 °F 23 °F  
Max Temperature 30 °F 31 °F 63 °F (1897)
Min Temperature 15 °F 15 °F -17 °F (1968)
Degree Days  
Heating Degree Days 42 42  
Month to date heating degree days 42 42  
Since 1 July heating degree days 2400 2463  
Cooling Degree Days 0 0  
Month to date cooling degree days 0 0  
Year to date cooling degree days 0 0  
Moisture  
Dew Point 8 °F    
Average Humidity 62    
Maximum Humidity 75    
Minimum Humidity 49    
Precipitation  
Precipitation T in 0.05 in 1.85 in (1876)
Month to date precipitation T 0.05  
Year to date precipitation T 0.05  
Snow  
Snow T in 0.30 in - ()
Month to date snowfall T 0.3  
Since 1 July snowfall 17.3 10.8  
Snow Depth 0.00 in    
Sea Level Pressure  
Sea Level Pressure 29.99 in    
Wind  
Wind Speed 21 mph (West)    
Max Wind Speed 30 mph    
Max Gust Speed 37 mph    
Visibility 10 miles    
Events Snow    
T = Trace of Precipitation, MM = Missing Value Source: NWS Daily Summary

Daily Weather History Graph

Daily Weather History Graph

Search for Another Location

Airport or City:

Trip Planner

Search our weather history database for the weather conditions in past years. The results will help you decide how hot, cold, wet, or windy it might be!

Date:

Astronomy

Jan. 01, 2011 Rise Set
Actual Time 7:28 AM CST 4:42 PM CST
Civil Twilight 6:57 AM CST 5:14 PM CST
Nautical Twilight 6:22 AM CST 5:48 PM CST
Astronomical Twilight 5:48 AM CST 6:22 PM CST
Moon 5:02 AM CST 2:18 PM CST
Length of Visible Light 10h 17m
Length of Day
9h 14m
Waning Crescent, 7% of the Moon is Illuminated
Jan 1
Waning Crescent
Jan 4
New
Jan 12
First Quarter
Jan 19
Full
Jan 26
Last Quarter

Hourly Weather History & Observations

Time (CST) Temp. Windchill Dew Point Humidity Pressure Visibility Wind Dir Wind Speed Gust Speed Precip Events Conditions
12:00 AM 30.2 °F 18.9 °F 23.0 °F 75% 29.78 in 10.0 mi WSW 16.1 mph 21.9 mph N/A   Mostly Cloudy
12:49 AM 26.6 °F 15.2 °F 21.2 °F 80% 29.79 in 10.0 mi West 13.8 mph - N/A   Scattered Clouds
12:52 AM 27.0 °F 16.1 °F 19.9 °F 75% 29.81 in 10.0 mi West 12.7 mph - N/A   Partly Cloudy
1:13 AM 26.6 °F 13.8 °F 19.4 °F 74% 29.80 in 10.0 mi WSW 17.3 mph 23.0 mph N/A   Mostly Cloudy
1:42 AM 26.6 °F 13.4 °F 15.8 °F 64% 29.81 in 10.0 mi WSW 18.4 mph 24.2 mph N/A   Scattered Clouds
1:52 AM 25.0 °F 10.9 °F 16.0 °F 69% 29.83 in 10.0 mi WSW 19.6 mph - N/A   Partly Cloudy
2:52 AM 21.9 °F 7.8 °F 12.0 °F 66% 29.84 in 10.0 mi WSW 17.3 mph - N/A   Clear
3:52 AM 19.0 °F 2.0 °F 6.1 °F 57% 29.86 in 10.0 mi WSW 23.0 mph 31.1 mph N/A   Clear
4:52 AM 18.0 °F 2.2 °F 5.0 °F 57% 29.87 in 10.0 mi WSW 18.4 mph 28.8 mph N/A   Clear
5:52 AM 15.8 °F -1.5 °F 1.4 °F 53% 29.88 in 10.0 mi WSW 20.7 mph 26.5 mph N/A   Clear
6:52 AM 15.1 °F -2.0 °F 1.9 °F 56% 29.92 in 10.0 mi WSW 19.6 mph 26.5 mph N/A   Clear
7:52 AM 16.0 °F -0.4 °F 1.0 °F 52% 29.95 in 10.0 mi WSW 18.4 mph 28.8 mph N/A   Clear
8:52 AM 16.0 °F -1.3 °F 1.9 °F 54% 29.97 in 10.0 mi WSW 20.7 mph 28.8 mph N/A   Scattered Clouds
9:52 AM 16.0 °F -2.5 °F 1.9 °F 54% 29.98 in 10.0 mi WSW 24.2 mph 33.4 mph N/A   Scattered Clouds
10:52 AM 18.0 °F 2.2 °F 3.9 °F 54% 29.99 in 10.0 mi WSW 18.4 mph 29.9 mph N/A   Overcast
11:52 AM 19.0 °F 2.0 °F 5.0 °F 54% 29.99 in 10.0 mi WSW 23.0 mph 29.9 mph N/A   Overcast
12:18 PM 19.4 °F 2.5 °F 6.8 °F 58% 29.97 in 10.0 mi West 23.0 mph 32.2 mph N/A   Mostly Cloudy
12:25 PM 17.6 °F 0.5 °F 5.0 °F 58% 29.97 in 10.0 mi West 21.9 mph 29.9 mph N/A   Mostly Cloudy
12:52 PM 19.0 °F 2.0 °F 5.0 °F 54% 29.99 in 10.0 mi West 23.0 mph 31.1 mph N/A   Mostly Cloudy
1:52 PM 19.0 °F 1.0 °F 3.0 °F 50% 30.00 in 10.0 mi WSW 26.5 mph 32.2 mph N/A   Mostly Cloudy
2:52 PM 19.0 °F 2.4 °F 3.0 °F 50% 30.03 in 10.0 mi West 21.9 mph 29.9 mph N/A   Mostly Cloudy
3:52 PM 18.0 °F -0.8 °F 3.0 °F 52% 30.07 in 10.0 mi West 27.6 mph 35.7 mph N/A   Mostly Cloudy
4:52 PM 18.0 °F 1.3 °F 5.0 °F 57% 30.09 in 10.0 mi West 20.7 mph 33.4 mph 0.00 in Snow Light Snow
5:52 PM 18.0 °F -0.2 °F 6.1 °F 60% 30.12 in 10.0 mi West 25.3 mph 33.4 mph 0.00 in   Mostly Cloudy
6:52 PM 18.0 °F 0.2 °F 6.1 °F 60% 30.13 in 10.0 mi West 24.2 mph 28.8 mph N/A   Scattered Clouds
7:52 PM 17.1 °F -0.3 °F 7.0 °F 65% 30.15 in 10.0 mi West 21.9 mph 26.5 mph N/A   Scattered Clouds
8:52 PM 17.1 °F 1.0 °F 6.1 °F 62% 30.18 in 10.0 mi West 18.4 mph 27.6 mph N/A   Clear
9:25 PM 17.6 °F 0.9 °F 6.8 °F 63% 30.16 in 10.0 mi West 20.7 mph 26.5 mph N/A   Mostly Cloudy
9:52 PM 17.1 °F 2.0 °F 6.1 °F 62% 30.19 in 10.0 mi West 16.1 mph - N/A   Overcast
10:28 PM 15.8 °F 0.9 °F 6.8 °F 68% 30.16 in 10.0 mi West 15.0 mph 20.7 mph N/A   Scattered Clouds
10:52 PM 16.0 °F 0.6 °F 6.1 °F 65% 30.20 in 10.0 mi West 16.1 mph 21.9 mph N/A   Clear
11:52 PM 15.1 °F -0.6 °F 5.0 °F 64% 30.20 in 10.0 mi West 16.1 mph - N/A   Clear